Location: Newark
(42.8481°N, 0.4872°E)
Time: 20:24:18
(UTC+00:00)

Transit 2A - Pass Details

Date: 27 October 2020
Orbit: 595 x 963 km, 66.7° (Epoch: 03 December)

Event Time Altitude Azimuth Distance (km) Brightness Sun altitude
Rises 03:53:10 0° 278° (W) 3,648 - -28.6°
Reaches altitude 10° 03:57:38 10° 307° (NW) 2,686 - -27.8°
Maximum altitude 04:00:09 12° 331° (NNW) 2,490 - -27.3°
Exits shadow 04:01:12 12° 341° (NNW) 2,511 8.5 -27.1°
Drops below altitude 10° 04:02:40 10° 355° (N) 2,639 8.8 -26.9°
Sets 04:06:58 0° 24° (NNE) 3,516 9.8 -26.1°
